GW5247 Weather Reports


time (UTC)temp
C
wind
direction
speed
KPH
gust
KPH
rain 1hr
cm
rain 24hr
cm
rain mn
cm
humidity
%
barometer
mb
20260508064521 11 102 1.6 3.2 0.00 3.63 0.00 97 1014.3
20260508063522 10 5 0.0 1.6 0.00 3.63 0.00 97 1014.3
20260508062521 11 0.0 0.0 0.00 3.63 0.00 97 1014.5
20260508061522 11 13 0.0 1.6 0.00 3.63 0.00 97 1014.5
20260508060522 11 23 0.0 3.2 0.00 3.63 0.00 97 1014.5
20260508055522 11 18 0.0 1.6 0.00 3.63 0.00 97 1014.4
20260508054522 11 66 0.0 1.6 0.00 3.63 0.00 97 1014.2
20260508053523 11 23 1.6 3.2 0.00 3.63 0.00 97 1014.3
20260508052522 11 20 0.0 1.6 0.00 3.63 0.00 97 1014.2
20260508051523 11 47 0.0 3.2 0.00 3.66 0.00 97 1014.1
20260508050523 11 316 0.0 1.6 0.00 3.76 0.00 97 1014.2
20260508045523 12 45 0.0 1.6 0.00 4.19 0.00 97 1014.3
20260508044524 12 4 1.6 3.2 0.00 4.34 0.00 97 1014.1
20260508043524 12 63 1.6 3.2 0.00 4.90 0.00 97 1014.1
20260508042524 12 34 1.6 1.6 0.00 5.21 0.00 97 1014.0
20260508041524 12 62 1.6 1.6 0.00 5.49 0.00 97 1014.0
20260508040524 12 57 1.6 3.2 0.00 5.49 0.00 96 1014.0
20260508035544 12 65 0.0 1.6 0.00 5.49 5.49 96 1013.9
20260508034524 12 150 0.0 1.6 0.00 5.49 5.49 97 1013.7
20260508033525 12 21 3.2 4.8 0.00 5.54 5.49 96 1013.4
20260508032525 12 15 3.2 4.8 0.00 5.56 5.49 96 1013.2
20260508031525 12 352 0.0 1.6 0.00 5.56 5.49 96 1013.3
20260508030525 12 10 3.2 4.8 0.00 5.56 5.49 96 1013.2
20260508025525 12 240 0.0 0.0 0.00 5.56 5.49 96 1013.1
20260508024525 12 11 3.2 4.8 0.00 5.56 5.49 96 1013.0
20260508023525 12 46 0.0 1.6 0.00 5.56 5.49 96 1013.0
20260508022525 12 61 1.6 3.2 0.00 5.56 5.49 96 1013.0
20260508021526 12 2 1.6 3.2 0.00 5.56 5.49 96 1012.8
20260508020546 12 15 1.6 3.2 0.00 5.56 5.49 96 1012.5
20260508015526 12 13 3.2 4.8 0.00 5.56 5.49 96 1012.6
20260508014526 12 47 0.0 1.6 0.00 5.56 5.49 96 1012.7
20260508013526 12 105 0.0 3.2 0.00 5.56 5.49 96 1012.5
20260508012527 12 20 1.6 3.2 0.10 5.56 5.49 96 1012.2
20260508011527 12 4 4.8 6.4 0.23 5.56 5.49 96 1011.8
20260508010527 12 26 1.6 3.2 0.28 5.56 5.49 96 1012.0
20260508005527 12 6 1.6 4.8 0.28 5.56 5.49 95 1011.8
20260508004527 12 2 1.6 3.2 0.28 5.56 5.49 95 1012.3
20260508003548 12 5 3.2 6.4 0.28 5.54 5.49 94 1011.6
20260508002548 12 20 4.8 8.0 0.20 5.46 5.41 93 1012.2
20260508001539 12 14 4.8 8.0 0.05 5.31 5.26 92 1011.8
20260508000528 12 7 3.2 6.4 0.00 5.26 5.21 92 1011.0
20260507235528 12 8 3.2 6.4 0.00 5.26 5.21 92 1010.8
20260507234528 12 19 3.2 6.4 0.00 5.26 5.21 92 1010.8
20260507233519 12 2 4.8 9.7 0.00 5.26 5.21 91 1010.8
20260507232519 12 6 4.8 9.7 0.00 5.26 5.21 91 1010.9
20260507231520 12 9 6.4 12.9 0.00 5.26 5.21 92 1010.8
20260507230540 12 3 4.8 9.7 0.00 5.26 5.21 91 1010.7
20260507225540 12 8 6.4 14.5 0.00 5.26 5.21 91 1010.7
20260507224540 12 6 4.8 11.3 0.00 5.26 5.21 91 1010.5
20260507223520 12 12 4.8 11.3 0.00 5.26 5.21 91 1010.3
20260507222520 12 7 4.8 12.9 0.00 5.26 5.21 91 1010.2
20260507221520 12 8 4.8 11.3 0.00 5.26 5.21 91 1010.2
20260507220520 12 5 4.8 9.7 0.00 5.26 5.21 91 1010.3
20260507215521 12 18 6.4 11.3 0.00 5.26 5.21 91 1010.7
20260507214521 12 9 4.8 11.3 0.00 5.26 5.21 93 1010.5
20260507213518 12 3 9.7 24.1 0.00 5.26 5.21 93 1010.2
20260507212521 12 6 6.4 12.9 0.00 5.26 5.21 94 1010.0
20260507211535 13 3 4.8 11.3 0.00 5.26 5.21 94 1009.8
20260507210515 13 2 9.7 19.3 0.08 5.26 5.21 95 1009.7
20260507205516 13 16 9.7 24.1 0.28 5.26 5.21 95 1009.6
20260507204516 13 15 11.3 19.3 0.56 5.26 5.21 95 1009.3
20260507203516 13 356 4.8 11.3 0.56 5.26 5.21 95 1009.3
20260507202516 13 359 8.0 12.9 0.56 5.26 5.21 95 1009.3
20260507201516 14 5 4.8 11.3 0.56 5.26 5.21 95 1009.5
20260507200516 14 4 3.2 8.0 0.48 5.18 5.11 95 1009.3
20260507195516 14 17 4.8 11.3 0.30 4.98 4.93 95 1009.3
20260507194517 14 17 6.4 12.9 0.43 4.70 4.65 95 1009.5
20260507193517 15 23 6.4 11.3 0.48 4.70 4.65 95 1009.3
20260507192537 15 6 4.8 12.9 0.46 4.75 4.62 95 1009.5
20260507191517 15 6 8.0 12.9 0.46 4.83 4.62 95 1009.2
20260507190516 16 351 9.7 20.9 0.46 4.83 4.62 94 1009.2
20260507185536 16 344 8.0 17.7 0.46 4.85 4.62 93 1008.4
20260507184537 17 354 6.4 11.3 0.05 4.42 4.22 92 1008.9
20260507183516 20 358 8.0 20.9 0.00 4.37 4.17 88 1009.0
20260507182516 22 255 1.6 4.8 0.00 4.37 4.17 86 1007.9
20260507181517 22 240 1.6 4.8 0.00 4.37 4.17 87 1007.7
20260507180516 21 231 1.6 6.4 0.00 4.37 4.17 89 1007.5
20260507175516 21 228 3.2 8.0 0.00 4.37 4.17 91 1008.3
20260507174516 21 243 4.8 12.9 0.03 4.37 4.17 91 1008.6
20260507173538 21 240 3.2 8.0 0.03 4.37 4.17 91 1008.1
20260507172517 21 238 3.2 6.4 0.03 4.37 4.17 92 1007.9
20260507171517 21 239 4.8 8.0 0.03 4.37 4.17 94 1007.5
20260507170518 20 206 1.6 3.2 0.03 4.37 4.17 94 1007.9
20260507165518 20 194 1.6 3.2 0.00 4.37 4.17 94 1008.3
20260507164517 20 201 1.6 3.2 0.00 4.37 4.14 94 1008.7
20260507163518 20 221 4.8 8.0 0.00 4.37 4.14 94 1009.0
20260507162517 20 224 4.8 8.0 0.00 4.37 4.14 94 1009.2
20260507161518 20 221 1.6 4.8 0.03 4.37 4.14 94 1009.6
20260507160520 20 212 1.6 4.8 0.05 4.37 4.14 94 1009.8
20260507155518 20 219 3.2 9.7 0.20 4.34 4.14 94 1009.6
20260507154538 20 223 4.8 6.4 0.38 4.34 4.14 95 1009.2
20260507153518 20 222 3.2 6.4 0.76 4.34 4.14 95 1008.9
20260507152538 19 226 3.2 8.0 1.02 4.34 4.14 94 1009.3
20260507151539 19 223 3.2 4.8 1.24 4.34 4.11 93 1009.2
20260507150539 19 237 4.8 12.9 1.45 4.29 4.09 94 1009.4
20260507145517 19 216 4.8 27.4 1.30 4.14 3.94 95 1009.9
20260507144517 19 211 4.8 17.7 1.12 3.96 3.76 95 1010.0
20260507143537 19 175 8.0 43.5 0.76 3.61 3.38 95 1010.0
20260507142519 20 163 3.2 9.7 0.48 3.35 3.12 95 1010.1
20260507141519 20 197 4.8 12.9 0.25 3.10 2.87 95 1010.2
20260507140539 20 219 1.6 3.2 0.03 2.87 2.64 95 1010.2
20260507135519 20 208 1.6 3.2 0.00 2.84 2.64 95 1010.2
20260507134519 20 223 1.6 3.2 0.00 2.84 2.64 95 1010.1
20260507133540 20 221 1.6 3.2 0.00 2.84 2.64 95 1010.0
20260507132519 20 221 1.6 3.2 0.00 2.84 2.64 95 1010.1
20260507131520 20 226 1.6 3.2 0.00 2.84 2.64 96 1010.0
20260507130520 20 210 1.6 4.8 0.00 2.84 2.64 96 1009.8
20260507125520 19 234 3.2 4.8 0.00 2.84 2.64 96 1009.8
20260507124522 19 241 1.6 4.8 0.00 2.84 2.64 96 1009.9
20260507123521 19 222 3.2 6.4 0.00 2.84 2.64 97 1010.0
20260507122521 19 172 1.6 4.8 0.00 2.84 2.64 97 1010.2
20260507121521 19 248 1.6 3.2 0.00 2.84 2.64 97 1010.2
20260507120522 18 240 1.6 3.2 0.00 2.84 2.64 97 1010.4
20260507115521 18 190 1.6 3.2 0.00 2.84 2.64 97 1010.5
20260507114521 18 193 1.6 3.2 0.00 2.84 2.64 97 1010.7
20260507113523 18 249 1.6 3.2 0.05 2.84 2.64 97 1010.8
20260507112522 18 270 1.6 3.2 0.10 2.84 2.64 97 1010.6
20260507111522 18 219 1.6 3.2 0.10 2.84 2.64 97 1010.8
20260507110522 18 264 1.6 3.2 0.13 2.84 2.64 97 1010.8
20260507105522 18 251 1.6 3.2 0.15 2.84 2.64 97 1010.6
20260507104522 18 263 1.6 3.2 0.18 2.84 2.64 97 1010.6
20260507103523 18 326 1.6 3.2 0.18 2.79 2.59 97 1010.6
20260507102543 18 246 1.6 4.8 0.13 2.74 2.54 97 1010.4
20260507101523 18 310 1.6 3.2 0.13 2.74 2.51 97 1010.7
20260507100543 18 244 1.6 4.8 0.13 2.72 2.51 97 1010.6
20260507095523 18 206 3.2 6.4 0.13 2.69 2.49 97 1010.3
20260507094544 18 216 1.6 4.8 0.08 2.67 2.46 97 1010.4
20260507093524 18 222 3.2 4.8 0.10 2.64 2.44 97 1010.4
20260507092524 18 222 1.6 6.4 0.20 2.62 2.41 97 1010.3
20260507091524 18 233 1.6 3.2 0.33 2.59 2.39 97 1010.5
20260507090544 18 212 1.6 4.8 0.33 2.59 2.36 97 1010.4
20260507085524 18 242 1.6 4.8 0.36 2.59 2.36 97 1010.6
20260507084517 18 228 1.6 6.4 0.43 2.59 2.36 97 1010.7
20260507083538 18 222 3.2 4.8 0.43 2.54 2.34 97 1010.8
20260507082518 18 204 3.2 4.8 0.30 2.41 2.18 97 1011.2
20260507081538 18 222 3.2 6.4 0.20 2.26 2.06 97 1011.2
20260507080538 18 163 1.6 3.2 0.20 2.26 2.03 97 1011.0
20260507075515 18 116 1.6 4.8 0.15 2.24 2.01 97 1011.1
20260507074515 18 92 1.6 4.8 0.10 2.16 1.96 96 1011.2
20260507073516 18 88 1.6 6.4 0.05 2.11 1.91 96 1011.3
20260507072516 18 211 1.6 3.2 0.05 2.11 1.91 96 1011.2
20260507071516 18 205 1.6 3.2 0.00 2.06 1.85 96 1011.5
20260507070516 18 70 1.6 4.8 0.00 2.06 1.85 96 1011.8
20260507065516 18 69 1.6 4.8 0.00 2.06 1.85 96 1011.9